Theta_e
315 308 306 305 296 291 287 288 292 292 292 298 299 298 298 301 298 294 320 332 336 339 343 345 347 346 344 342 343 343 344 343 342 345 344 341 337 336 337 337 341 340 340 340 339 337 337 336 336
312 310 305 298 292 286 287 290 291 293 297 304 301 303 303 301 313 321 325 334 338 341 343 343 344 345 343 342 342 343 343 342 341 344 343 339 336 337 337 336 338 338 337 339 339 338 337 336 335
310 305 301 294 287 286 287 289 292 294 298 296 299 304 304 304 313 323 327 336 339 340 342 341 343 345 344 343 343 343 343 343 344 344 341 337 337 336 335 336 337 337 338 337 337 338 337 336 336
305 300 296 291 286 289 290 292 295 295 295 298 301 301 306 314 320 327 334 337 338 340 340 341 344 345 345 343 343 342 342 342 343 343 341 338 336 335 334 336 336 335 338 340 339 337 338 336 336
300 296 290 288 289 292 292 294 295 294 296 299 299 300 304 315 325 332 334 337 337 339 338 340 343 343 344 343 342 342 342 342 341 341 340 337 335 334 333 334 335 333 336 337 336 337 335 334 335
296 294 288 286 287 290 294 295 295 292 294 297 301 304 307 316 327 330 335 335 337 338 338 339 337 339 342 342 342 341 341 341 339 339 337 335 333 333 332 333 333 332 335 336 335 333 334 334 333
294 290 287 287 288 291 295 296 293 294 294 296 304 300 303 313 326 330 332 335 338 338 338 337 337 337 336 338 338 339 339 340 339 338 337 335 333 332 332 333 333 333 334 334 332 332 332 331 330
295 292 287 288 288 289 294 296 295 295 295 299 305 298 301 315 327 329 331 333 335 337 339 338 335 335 334 333 332 334 335 336 336 335 332 329 329 330 329 329 332 332 332 331 330 330 329 328 327
295 290 287 288 290 291 292 293 293 295 295 295 299 302 306 322 328 327 329 330 333 335 336 337 337 333 332 331 328 329 330 331 330 328 325 321 319 320 321 326 330 330 329 328 328 327 325 323 322
294 289 290 292 291 290 294 293 295 295 296 296 301 305 312 323 327 326 326 326 327 330 333 335 336 336 331 331 327 326 326 325 323 321 319 317 316 318 320 321 326 327 326 326 324 321 316 311 306
292 291 291 292 292 294 295 292 294 294 293 296 298 302 313 318 324 325 324 324 327 329 333 334 335 336 332 329 326 324 323 321 320 318 317 316 315 316 316 316 315 313 313 311 309 306 304 304 305
290 291 293 295 294 293 294 294 291 293 296 296 298 305 313 319 321 324 324 323 325 326 331 333 335 335 334 330 327 324 323 320 319 318 317 315 314 313 313 312 310 309 306 304 303 302 301 301 301
289 290 292 293 293 291 293 292 292 292 295 295 296 308 313 319 321 323 324 323 323 326 328 332 334 333 333 331 329 326 323 322 319 318 317 316 313 312 311 310 308 305 304 302 301 300 299 299 299
292 291 290 292 291 293 290 288 290 291 291 293 298 304 310 315 318 316 317 319 322 327 328 331 332 333 333 332 329 328 325 322 320 319 318 317 316 315 312 308 306 303 302 300 299 298 296 295 295
292 289 288 290 291 291 292 289 291 291 291 291 293 297 305 309 310 315 320 320 323 326 328 329 332 332 332 332 331 328 327 325 321 320 318 317 317 316 313 309 307 304 300 297 296 296 295 294 292
289 287 284 288 291 290 289 285 289 291 289 292 291 290 295 302 308 311 314 316 317 322 325 329 331 332 332 331 331 330 327 324 323 321 320 318 316 316 312 311 309 303 300 297 297 295 292 291 290
286 281 282 287 291 289 287 286 289 291 291 290 290 290 291 292 294 301 310 314 315 318 324 327 329 330 331 331 331 330 328 326 323 321 322 320 318 316 314 312 310 303 299 296 296 292 292 291 290
283 282 282 283 287 289 287 288 291 292 290 291 290 291 292 292 294 296 299 310 314 316 320 326 328 329 329 332 331 331 329 328 325 322 322 321 320 318 314 312 308 303 298 296 294 293 292 291 289
286 283 282 283 288 286 286 287 291 291 290 291 292 292 292 292 297 295 295 296 306 310 316 322 325 328 328 329 328 327 326 326 325 324 322 321 321 319 316 312 308 303 299 297 295 291 290 288 287
285 283 281 285 288 288 286 287 290 290 291 292 293 292 292 292 292 293 294 294 295 305 313 318 323 326 327 330 330 329 328 327 327 326 323 322 321 319 317 313 308 305 301 296 293 291 290 288 289
282 282 281 283 285 286 283 283 285 287 288 290 292 292 292 293 293 292 293 293 292 293 304 313 319 324 327 328 329 315 314 312 313 315 323 322 322 320 318 314 311 306 302 297 293 293 293 286 287
282 286 286 284 283 279 282 277 281 285 287 288 290 290 290 289 291 292 293 292 291 292 294 305 313 320 324 327 327 324 323 321 321 323 321 322 322 321 318 314 312 307 304 299 296 295 295 293 288
285 287 286 284 281 280 279 278 281 283 285 288 290 289 289 291 291 290 291 292 292 293 293 300 309 314 319 325 327 325 324 325 316 313 316 316 314 319 317 316 313 310 307 303 298 296 295 295 293
289 286 285 282 280 277 280 280 278 282 285 285 287 288 291 292 292 293 294 295 296 300 300 303 309 313 318 324 325 324 323 313 310 309 312 312 310 308 309 310 312 311 308 306 301 297 296 295 295
285 283 277 276 275 276 279 278 281 285 287 286 288 288 290 292 292 293 293 294 296 299 302 305 310 311 314 317 318 319 320 313 313 311 312 308 307 303 305 306 305 308 309 307 303 299 296 295 294
284 284 278 272 273 275 279 277 282 287 288 290 291 292 292 292 292 292 292 293 295 296 299 303 308 308 309 310 312 311 311 312 311 309 309 308 306 305 303 302 303 304 305 304 301 298 296 295 293
285 282 285 278 269 274 278 281 286 289 289 290 291 291 290 290 291 291 292 293 294 296 296 298 301 305 307 308 306 307 307 307 306 303 303 302 300 297 300 300 299 300 300 299 299 297 295 294 293
287 289 281 279 270 270 276 278 281 284 287 289 289 290 290 291 292 292 292 293 294 294 295 296 298 299 300 303 303 303 302 302 300 298 297 295 294 292 292 295 296 296 296 297 297 296 293 292 293
284 283 283 284 281 276 272 278 283 285 289 289 289 290 291 291 291 291 292 292 293 293 294 295 295 297 297 298 298 298 297 296 295 294 294 293 291 290 290 289 289 291 292 293 294 293 291 292 292
287 285 285 279 276 278 277 281 288 287 289 290 290 291 291 291 291 291 291 292 293 293 293 294 294 295 295 296 296 296 295 294 293 293 292 291 291 289 289 287 287 287 287 290 290 290 291 290 290
Wind_Speed
5 5 3 6 6 6 1 2 0 4 3 2 4 6 7 3 5 5 2 2 10 11 7 8 12 13 12 12 10 11 10 12 12 14 17 17 15 15 16 14 14 16 17 18 19 19 20 19 19
3 3 5 3 6 4 5 2 5 4 5 7 5 2 2 1 1 4 6 4 11 10 7 7 12 13 13 12 11 10 9 12 11 14 16 16 16 15 15 14 14 14 15 18 18 19 18 19 19
3 4 4 6 4 5 5 4 5 2 6 3 3 3 2 2 1 7 2 10 9 8 7 8 12 13 13 12 11 11 9 11 11 15 16 15 15 15 15 14 15 15 17 17 18 18 19 19 19
3 5 5 5 4 3 3 5 6 5 1 1 4 5 1 2 4 5 9 12 10 8 7 9 12 13 13 11 11 11 10 11 12 15 16 15 14 14 14 14 14 15 16 17 19 18 19 19 19
5 4 4 3 2 2 3 3 6 5 2 3 2 4 0 1 2 8 11 10 12 10 7 8 11 13 12 12 12 11 10 12 12 14 16 15 14 14 14 14 15 15 13 17 18 19 19 18 19
5 4 5 2 2 1 2 4 5 3 2 3 5 5 4 1 6 6 8 9 9 13 8 6 10 11 12 12 11 11 10 11 12 13 14 14 14 14 14 14 15 14 13 17 17 17 17 18 18
6 4 4 4 3 1 4 8 4 5 4 4 9 6 2 3 5 6 7 7 9 7 8 6 6 8 10 10 10 10 10 11 12 11 13 13 12 13 13 11 15 14 15 17 16 16 18 17 17
6 6 3 2 4 4 5 6 2 6 6 2 4 5 5 6 9 7 7 7 9 11 10 9 5 6 6 6 9 9 9 10 10 11 12 11 11 11 9 8 13 15 15 16 16 16 17 17 17
3 6 2 4 6 3 4 4 2 1 4 2 4 5 3 9 11 9 6 6 9 10 12 9 7 5 5 6 6 8 9 9 10 10 11 8 5 6 7 8 12 14 14 15 15 16 16 17 16
6 4 8 4 4 4 6 3 7 2 1 3 3 2 4 10 14 15 13 12 8 13 13 12 9 8 6 4 5 5 5 4 5 5 6 4 5 5 5 7 11 11 13 14 14 14 13 10 4
3 5 5 3 2 3 6 2 5 7 4 8 10 7 8 7 12 13 10 10 12 10 11 13 10 10 8 5 4 3 3 3 3 6 5 5 4 4 4 3 4 4 8 4 5 5 5 7 5
2 2 4 2 2 3 6 6 3 7 7 4 8 5 8 12 14 15 13 10 10 9 13 14 14 11 10 5 5 4 4 3 3 4 6 4 3 4 4 3 4 4 3 5 4 4 5 7 7
2 3 3 1 1 2 2 2 3 7 8 5 3 7 12 14 14 10 8 6 6 10 11 15 15 13 11 10 7 6 5 5 4 4 5 4 4 4 4 4 4 4 4 4 4 5 5 6 6
2 2 1 1 1 2 0 0 1 4 2 3 3 8 9 11 14 6 7 8 10 11 12 12 16 14 12 10 10 9 7 6 5 5 5 6 4 4 3 4 4 4 4 4 5 4 4 5 4
2 4 3 2 1 1 2 7 8 5 3 3 7 7 7 9 5 12 15 13 13 10 9 12 15 15 15 14 10 7 8 9 7 6 7 7 6 6 6 4 4 4 4 7 6 6 6 5 4
4 5 3 4 2 1 4 9 4 3 4 9 7 8 7 9 11 9 8 7 8 8 11 12 11 15 16 14 10 8 6 7 8 8 8 10 7 8 7 6 5 5 5 5 5 5 5 5 4
6 3 3 7 4 1 3 7 4 2 4 4 5 7 8 9 10 12 12 11 10 12 11 13 13 15 16 14 11 9 9 7 6 7 8 11 10 10 8 7 6 7 6 4 6 3 4 4 4
6 4 2 4 1 0 1 12 8 7 4 7 7 8 9 9 14 14 11 14 11 12 12 13 12 14 14 11 9 8 7 7 7 7 8 12 10 11 9 7 8 8 6 6 6 6 4 4 5
5 4 4 3 1 2 6 8 14 7 6 9 10 10 10 11 14 7 9 9 9 8 12 14 13 14 11 11 10 9 9 8 8 8 11 12 12 12 12 9 10 9 9 9 9 6 10 3 5
4 3 2 3 1 3 5 10 12 9 9 9 9 10 11 8 9 7 9 8 10 14 16 15 16 15 14 11 11 8 9 7 8 8 10 12 12 14 13 12 12 13 10 12 12 9 5 2 8
3 5 4 6 3 2 6 9 7 6 5 6 9 11 9 12 12 9 9 10 8 11 13 15 17 17 16 16 9 3 4 3 2 4 8 12 15 16 16 15 11 13 12 11 13 12 14 5 7
6 8 5 3 3 4 2 9 6 5 8 7 11 10 10 8 8 8 9 8 7 9 7 10 12 14 13 15 13 15 11 10 8 9 7 9 14 15 15 14 13 14 10 13 14 13 12 9 9
7 6 6 3 3 2 3 2 8 3 5 11 10 7 7 6 8 8 7 7 6 4 6 8 8 8 10 14 14 13 13 9 3 3 7 7 5 10 12 13 13 12 11 13 14 14 14 12 10
10 7 7 5 3 3 8 8 6 5 8 4 2 4 7 8 7 7 6 5 3 4 2 5 8 7 9 15 15 15 15 6 5 4 6 6 4 2 2 6 9 10 10 11 12 13 14 12 8
3 7 2 3 2 8 3 3 5 6 10 6 8 9 8 6 6 7 8 7 7 7 5 4 8 7 7 11 11 9 9 8 8 7 6 5 4 3 6 6 5 7 9 11 11 10 11 12 12
7 9 8 9 6 3 2 10 9 9 4 5 3 5 6 6 4 5 6 5 6 7 7 5 6 6 6 6 6 5 6 5 4 5 4 4 4 3 4 5 5 6 6 7 8 7 8 9 8
6 8 5 8 3 4 6 8 9 7 4 2 4 3 4 3 1 2 5 5 5 6 6 4 4 4 4 4 4 4 3 4 3 3 2 2 1 2 4 5 5 5 5 6 8 7 9 9 9
8 8 4 3 4 4 6 6 9 2 6 3 4 5 5 5 5 5 5 6 4 5 4 5 5 5 5 5 4 4 5 4 4 4 4 4 3 3 4 4 4 5 5 6 7 5 5 8 7
4 4 2 5 6 7 3 9 8 9 6 7 3 2 4 5 4 4 4 3 3 3 4 4 5 5 5 4 3 4 3 2 3 2 1 2 2 3 4 5 5 5 5 5 6 6 7 10 9
3 10 8 6 6 3 3 14 3 4 7 7 5 3 4 3 3 3 2 2 4 4 3 3 3 5 5 4 3 2 2 1 1 2 3 3 4 4 5 5 5 5 6 6 6 6 5 8 8
Wind_Direction
353 11 63 40 58 67 181 214 292 133 162 175 122 142 187 131 167 203 314 159 130 137 141 140 132 130 129 127 120 114 117 110 105 105 100 95 91 91 91 90 83 80 80 85 83 82 80 78 76
5 47 42 76 86 74 268 257 197 188 153 126 93 121 63 115 111 101 115 156 137 135 131 129 131 134 134 133 125 119 118 109 114 114 105 99 99 99 95 94 89 86 90 91 83 82 83 82 79
101 47 84 92 109 162 198 206 181 142 152 148 107 65 117 167 1 169 165 138 130 129 128 135 135 135 136 138 131 123 124 116 110 113 106 102 100 99 99 100 93 87 95 91 85 86 85 84 85
69 14 39 86 187 225 200 174 169 128 343 160 132 71 346 264 177 192 138 133 125 129 126 140 141 141 141 138 133 131 131 122 115 110 110 106 105 104 102 100 93 85 81 92 90 89 86 82 81
38 57 64 87 270 272 251 148 153 141 162 143 151 197 2 32 56 132 136 138 142 142 133 144 145 145 142 141 140 137 135 125 121 112 111 113 114 112 109 105 96 94 84 92 91 89 88 92 90
43 90 69 171 263 315 106 141 129 140 170 158 82 140 181 116 127 154 138 136 146 154 141 145 147 144 145 147 145 142 136 129 127 123 120 118 119 116 113 113 107 101 99 100 96 96 92 89 84
112 82 175 154 190 80 174 148 158 176 170 224 155 132 267 193 168 146 133 118 134 147 142 138 145 147 145 144 141 141 138 132 131 128 120 120 120 119 118 117 110 106 106 100 102 99 99 90 84
104 91 115 208 185 222 163 164 160 162 221 69 161 179 225 204 149 132 126 130 142 160 165 163 141 143 141 143 139 138 137 130 124 112 112 108 104 102 109 101 112 111 109 112 109 103 96 88 84
118 64 168 203 155 216 140 157 148 267 122 249 197 148 302 129 130 134 143 165 164 167 175 172 160 145 139 139 147 138 136 123 115 111 109 97 103 104 98 105 111 118 115 114 110 105 97 91 85
87 118 211 201 200 185 174 159 162 142 131 251 279 119 95 137 156 165 175 180 184 172 179 178 170 164 143 143 143 138 128 125 121 119 115 110 118 119 108 97 101 109 119 114 111 105 93 79 62
144 184 202 227 175 155 156 161 153 126 252 222 205 172 161 154 174 179 188 189 187 175 174 183 173 171 160 151 144 134 129 126 123 127 124 121 117 108 103 89 85 76 71 76 79 82 59 63 56
148 207 172 166 147 122 153 130 197 179 213 296 235 167 165 171 183 191 196 190 177 169 179 183 183 177 174 160 162 149 148 141 143 146 140 135 130 133 128 115 113 103 93 98 80 73 75 68 57
175 198 167 21 65 86 113 174 217 251 249 284 81 161 181 189 193 203 199 183 173 183 179 184 183 185 182 173 168 163 162 162 154 149 146 139 140 139 133 129 120 109 105 99 88 81 77 70 65
191 105 92 89 11 346 247 241 127 249 312 182 183 211 201 198 199 172 181 193 192 193 189 178 188 189 184 184 178 176 170 165 159 157 161 152 148 153 142 126 120 116 112 96 93 88 78 72 68
88 116 2 238 172 272 158 305 235 236 358 212 234 238 227 235 214 212 204 204 198 203 184 187 189 191 192 193 185 183 181 169 170 175 163 167 159 155 133 139 137 133 120 115 107 98 95 85 70
67 53 83 315 142 287 127 267 270 346 192 240 233 247 240 240 230 236 228 211 196 191 190 190 186 194 195 195 190 184 177 181 178 175 173 173 166 154 148 156 146 136 128 119 114 114 92 90 72
16 175 177 312 223 127 149 265 270 103 85 294 257 250 247 259 258 234 223 218 201 198 193 194 189 190 195 198 194 187 179 180 185 178 181 180 173 166 162 168 151 143 134 130 139 117 117 120 103
173 182 203 234 250 177 201 266 272 275 295 272 277 271 259 248 243 242 222 221 209 200 198 199 194 192 190 193 197 193 182 185 177 189 190 179 181 174 163 157 150 149 147 147 141 133 111 125 125
124 134 177 224 287 202 232 266 277 283 286 271 264 260 257 245 258 229 229 221 207 198 197 197 191 195 181 193 190 195 193 188 187 189 191 185 182 179 174 170 161 163 169 168 152 130 135 116 133
117 130 227 289 39 154 330 274 271 266 254 236 241 252 246 265 272 266 254 225 206 209 205 200 201 190 192 195 199 202 198 201 197 188 191 192 190 183 181 181 181 175 167 169 169 159 150 110 185
157 163 188 221 355 65 335 284 266 293 264 276 262 249 265 245 272 265 256 242 220 212 200 203 201 194 193 193 181 89 79 81 132 178 190 198 194 195 191 185 189 180 172 184 179 179 170 160 197
190 199 164 171 92 237 21 284 293 273 299 300 280 265 267 291 262 256 269 269 243 242 212 203 204 199 195 184 183 192 197 199 207 198 200 201 199 195 194 193 186 186 190 184 190 184 190 157 174
216 133 148 104 116 52 321 337 270 348 292 268 266 309 315 320 300 303 300 295 284 262 213 199 189 185 182 186 193 198 210 217 141 149 177 199 210 203 199 198 193 189 196 199 188 188 193 195 172
147 78 52 60 92 288 199 173 260 210 217 275 267 349 336 329 356 360 351 3 13 21 95 178 174 184 175 192 198 205 209 167 153 166 187 194 194 195 219 196 196 197 198 205 209 195 205 202 199
90 94 16 349 4 231 338 165 241 241 239 228 285 308 316 336 17 18 18 17 19 22 46 108 142 167 174 193 197 196 205 168 184 181 194 172 184 186 198 197 197 195 205 196 186 198 208 197 209
186 158 163 196 198 240 56 235 255 236 325 276 296 313 321 345 6 29 23 20 35 34 32 68 137 128 146 157 173 165 163 175 172 167 174 184 188 190 156 194 205 221 209 197 186 191 193 206 201
208 213 167 105 34 64 216 284 291 263 224 53 2 359 351 275 160 36 38 36 33 48 40 53 100 109 118 127 130 164 154 161 176 136 141 170 168 184 193 188 193 196 194 180 177 188 193 195 204
160 156 81 1 137 246 265 274 227 153 198 121 21 14 355 15 47 40 27 16 20 34 46 52 80 115 137 134 142 156 167 169 163 150 185 198 190 184 189 215 202 194 194 187 181 186 184 189 201
137 182 136 133 165 183 230 248 208 211 155 145 133 83 59 41 32 32 23 18 34 40 35 41 58 80 86 96 105 115 118 119 124 151 196 224 210 198 207 214 211 209 208 199 201 194 184 197 204
310 200 160 159 227 248 164 257 7 183 155 142 138 75 60 55 50 47 73 62 63 76 55 55 59 79 77 76 81 84 84 81 216 197 226 213 231 205 215 210 218 220 215 201 205 208 201 208 210